This is the latest recevied weather packets stored in our database for station/object K0WOI. If no packets are shown the sender has not sent any weather packets the latest 10 day(s).
| Time | Temp. | Humidity | Pressure | Rain* | Wind** | Luminosity | Snow |
|---|---|---|---|---|---|---|---|
| 1777941143 | 18.33° C | 35% | 1003.4 hPa | 0 mm | - | 19 W/m² | - |
| 1777940839 | 18.89° C | 33% | 1003.1 hPa | 0 mm | - | 18 W/m² | - |
| 1777940537 | 18.89° C | 33% | 1003 hPa | 0 mm | - | 18 W/m² | - |
| 1777940234 | 19.44° C | 33% | 1002.8 hPa | 0 mm | - | 23 W/m² | - |
| 1777939932 | 20° C | 32% | 1002.7 hPa | 0 mm | - | 26 W/m² | - |
| 1777939628 | 20° C | 31% | 1002.8 hPa | 0 mm | - | 33 W/m² | - |
| 1777939326 | 20.56° C | 30% | 1002.4 hPa | 0 mm | - | 35 W/m² | - |
| 1777939023 | 21.11° C | 30% | 1002.5 hPa | 0 mm | - | 36 W/m² | - |
| 1777938719 | 21.67° C | 30% | 1002.3 hPa | 0 mm | - | 40 W/m² | - |
| 1777938416 | 21.67° C | 31% | 1002.4 hPa | 0 mm | - | 42 W/m² | - |
| 1777938113 | 22.22° C | 29% | 1002.3 hPa | 0 mm | - | 44 W/m² | - |
| 1777937809 | 22.22° C | 30% | 1002.2 hPa | 0 mm | - | 45 W/m² | - |
| 1777937505 | 22.22° C | 29% | 1002.4 hPa | 0 mm | - | 75 W/m² | - |
| 1777937203 | 22.78° C | 30% | 1002.3 hPa | 0 mm | - | 49 W/m² | - |
| 1777936900 | 22.78° C | 29% | 1002 hPa | 0 mm | - | 58 W/m² | - |
| 1777936596 | 23.33° C | 28% | 1002.2 hPa | 0 mm | - | 54 W/m² | - |
| 1777936293 | 23.33° C | 30% | 1001.9 hPa | 0 mm | - | 52 W/m² | - |
| 1777935989 | 23.33° C | 29% | 1002 hPa | 0 mm | - | 78 W/m² | - |
| 1777935688 | 23.89° C | 28% | 1001.9 hPa | 0 mm | - | 57 W/m² | - |
| 1777935386 | 24.44° C | 28% | 1001.7 hPa | 0 mm | - | 188 W/m² | - |
| 1777935081 | 24.44° C | 28% | 1001.8 hPa | 0 mm | - | 95 W/m² | - |
| 1777934778 | 24.44° C | 28% | 1001.4 hPa | 0 mm | - | 59 W/m² | - |
| 1777934475 | 24.44° C | 30% | 1001.2 hPa | 0 mm | - | 169 W/m² | - |
| 1777934172 | 24.44° C | 26% | 1001.3 hPa | 0 mm | - | 261 W/m² | - |
| 1777933868 | 25° C | 29% | 1001.1 hPa | 0 mm | - | 265 W/m² | - |
* Rain latest hour (hover to see other rain measurements)
** Current wind speed in m/s (hover to see current wind gust speed)